Tracking 30986 objects as of 9-Jul-2025
HD Live streaming from Space Station
objects crossing your sky now

ION SCV-010

Track ION SCV-010 now!
10-day predictions
ION SCV-010 is classified as:


NORAD ID: 56192
Int'l Code: 2023-054Q
Perigee: 498.1 km
Apogee: 516.7 km
Inclination: 97.4 °
Period: 94.6 minutes
Semi major axis: 6878 km
RCS: Unknown
Launch date: April 15, 2023
Source: Italy (IT)
Launch site: AIR FORCE WESTERN TEST RANGE (AFWTR)

Uplink (MHz):
Downlink (MHz): 401.415
Beacon (MHz):
Mode: 1200bps FSK
Call sign:
Status: Active

Your satellite tracking list
Your tracking list is empty




NASA's NSSDC Master Catalog

Two Line Element Set (TLE):
1 56192U 23054Q   25189.78342582  .00003153  00000-0  14157-3 0  9994
2 56192  97.4211  78.8064 0013518 340.2449  19.8262 15.21835297123890
Source of the keplerian elements: AFSPC